星链-31655 (STARLINK-31655 )

导读 | 星芒AI

STARLINK-31655 是 SpaceX Starlink 卫星互联网项目中的一颗低轨卫星,属于第三代星链卫星(v1.5 或 v2 版本)。该卫星于2023年发射,运行在约550公里高度的近地轨道,旨在为全球用户提供高速、低延迟的互联网服务。Starlink 项目由数千颗卫星组成,致力于改善偏远地区的网络接入。STARLINK-31655 配备先进通信设备,支持Ka/Ku波段通信,并具备自主避障能力,以确保轨道安全和系统稳定性。

基本信息
目录编号:
59257
目录名称:
STARLINK-31655
国际标识:
2024-050D
轨道中心:
EARTH
卫星名称:
星链-31655
卫星全名:
星链-31655 (STARLINK-31655 )
卫星状态:
在轨 (已飞行592 天)
发射日期:
2024-03-19 UTC
国别 :
美国 (US)
星等 :
--
轨道信息
数据来源 国际轨道数据
星历时间: 2025-11-01T04:00:03+0800
23小时前
查看轨道信息
半长轴: 6843.113km
偏心率: 0.0004328
轨道倾角: 53.158°
近地点辐角 33.180°
升交点赤经 21.059°
平近点角 13.140°
近地点: 462.016km
远地点: 467.94km
周期: 93.895分钟
每日圈数: 15.336359
详细信息
固有亮度:
5
最大亮度:
0.3
卫星平台:
Starlink v2.0 mini
覆盖范围:
全球
运营商:
太空探索技术公司
运营商所在国:
美国
制造商(研发单位):
太空探索技术公司
制造商所在国:
美国
使用方式:
暂无
卫星简介
星链(Starlink)计划是由太空探索技术公司(SpaceX)提出的一个巨型低轨卫星互联网星座项目,计划在2019年至2024年间在太空搭建由约1.2万颗卫星组成的“星链”网络,其中1584颗将部署在地球上空550千米处的近地轨道,并从2020年开始工作。该卫星仍在工作。
2D轨道图
3D轨道图
轨道高度分析图
轨道倾角分析图
轨道综合分析图
查看轨道综合分析图